Weather History for K79J - November, 2012

Change the Weather History Date:

Friday, November 23, 2012

  Actual Average (KCEW) Record (KCEW)
Temperature  
Mean Temperature 60 °F -  
Max Temperature 75 °F 68 °F 79 °F (1979)
Min Temperature 45 °F 45 °F 24 °F (1976)
Degree Days  
Heating Degree Days 5    
Growing Degree Days 10 (Base 50)    
Moisture  
Dew Point 46 °F    
Average Humidity 60    
Maximum Humidity 83    
Minimum Humidity 31    
Precipitation  
Precipitation 0.00 in - - ()
Sea Level Pressure  
Sea Level Pressure 30.16 in    
Wind  
Wind Speed 3 mph (NNW)    
Max Wind Speed 15 mph    
Max Gust Speed 18 mph    
Visibility 8 miles    
Events      
Averages and records for this station are not official NWS values.
T = Trace of Precipitation, MM = Missing Value Source: NWS Daily Summary

Daily Weather History Graph

Daily Weather History Graph

Search for Another Location

Airport or City:

Trip Planner

Search our weather history database for the weather conditions in past years. The results will help you decide how hot, cold, wet, or windy it might be!

Date:

Astronomy

Nov. 23, 2012 Rise Set
Actual Time 6:20 AM CST 4:43 PM CST
Civil Twilight 5:54 AM CST 5:09 PM CST
Nautical Twilight 5:24 AM CST 5:39 PM CST
Astronomical Twilight 4:55 AM CST 6:08 PM CST
Moon 1:44 PM CST (11/23) 1:53 AM CST (11/23)
Length of Visible Light 11h 15m
Length of Day
10h 23m
Waxing Gibbous, 80% of the Moon is Illuminated
Nov 23
Waxing Gibbous
Nov 28
Full
Dec 6
Last Quarter
Dec 13
New
Dec 19
First Quarter

Hourly Weather History & Observations

Time (CST) Temp. Dew Point Humidity Pressure Visibility Wind Dir Wind Speed Gust Speed Precip Events Conditions
12:56 AM 48.9 °F 43.0 °F 80% 30.19 in 7.0 mi Calm Calm - N/A   Clear
1:56 AM 48.0 °F 42.1 °F 80% 30.19 in 6.0 mi Calm Calm - N/A   Haze
2:56 AM 48.0 °F 42.1 °F 80% 30.19 in 5.0 mi Calm Calm - N/A   Haze
3:56 AM 46.0 °F 41.0 °F 83% 30.19 in 7.0 mi Calm Calm - N/A   Clear
4:56 AM 45.0 °F 39.9 °F 82% 30.20 in 7.0 mi Calm Calm - N/A   Clear
5:56 AM 45.0 °F 39.9 °F 82% 30.21 in 7.0 mi Calm Calm - N/A   Clear
6:56 AM 45.0 °F 39.0 °F 80% 30.23 in 5.0 mi Calm Calm - N/A   Haze
7:56 AM 55.0 °F 48.0 °F 77% 30.24 in 5.0 mi Calm Calm - N/A   Haze
8:56 AM 64.9 °F 48.9 °F 56% 30.24 in 10.0 mi NW 9.2 mph - N/A   Clear
9:56 AM 70.0 °F 46.9 °F 44% 30.23 in 10.0 mi NW 11.5 mph - N/A   Clear
10:56 AM 73.9 °F 45.0 °F 35% 30.20 in 10.0 mi NW 10.4 mph - N/A   Clear
11:56 AM 75.0 °F 44.1 °F 33% 30.16 in 10.0 mi NNW 6.9 mph 16.1 mph N/A   Clear
12:56 PM 75.0 °F 42.1 °F 31% 30.12 in 10.0 mi WNW 6.9 mph - N/A   Clear
1:56 PM 75.9 °F 46.0 °F 35% 30.11 in 10.0 mi NNW 9.2 mph - N/A   Clear
2:56 PM 75.0 °F 45.0 °F 34% 30.10 in 10.0 mi NNW 11.5 mph - N/A   Clear
3:56 PM 73.9 °F 45.0 °F 35% 30.10 in 10.0 mi NNW 9.2 mph - N/A   Clear
4:56 PM 68.0 °F 48.0 °F 49% 30.10 in 10.0 mi West 3.5 mph - N/A   Clear
5:56 PM 62.1 °F 48.9 °F 62% 30.10 in 8.0 mi Calm Calm - N/A   Clear
6:56 PM 60.1 °F 48.9 °F 67% 30.11 in 8.0 mi Calm Calm - N/A   Clear
7:56 PM 63.0 °F 50.0 °F 63% 30.12 in 9.0 mi NW 8.1 mph - N/A   Clear
8:56 PM 61.0 °F 51.1 °F 70% 30.13 in 9.0 mi NNW 5.8 mph - N/A   Clear
9:56 PM 63.0 °F 53.1 °F 70% 30.13 in 10.0 mi North 10.4 mph - N/A   Overcast
10:56 PM 63.0 °F 51.1 °F 65% 30.14 in 10.0 mi North 15.0 mph - N/A   Mostly Cloudy
11:56 PM 60.1 °F 45.0 °F 57% 30.14 in 10.0 mi North 10.4 mph 18.4 mph N/A   Partly Cloudy